Dewpoint
52 52 53 52 54 53 53 53 53 53 53 54 54 55 55 56 56 46 46 50 50 53 51 40 38 37 41 40 40 39 32 22 17 16 17 17 18 20 22 23 23 25 26 25 25
51 51 52 52 52 52 52 53 52 53 53 53 54 54 55 55 49 45 50 53 53 52 41 38 37 38 35 35 39 35 30 24 24 23 21 23 25 25 24 25 25 26 26 26 27
51 51 51 51 52 52 52 52 52 52 53 53 54 54 54 54 45 43 51 53 52 49 43 39 39 39 35 36 35 35 31 28 28 28 31 30 30 30 28 27 26 25 26 27 26
51 52 52 53 52 51 51 52 52 52 53 53 53 54 54 48 37 48 52 51 50 46 43 40 38 35 35 32 35 33 30 30 32 32 32 31 31 30 30 29 30 29 29 29 29
51 52 53 51 51 51 51 51 51 52 52 52 53 53 51 40 39 50 53 47 44 45 42 40 38 38 35 33 34 34 34 33 34 34 33 33 32 32 31 32 32 30 30 30 31
52 52 52 52 52 51 50 50 51 51 52 53 54 53 46 37 45 48 48 45 43 43 42 42 40 40 39 36 34 35 35 34 35 34 33 31 30 31 30 30 30 29 30 30 30
52 52 52 52 51 51 51 51 51 51 52 53 52 48 45 41 44 47 45 45 45 43 42 43 43 41 39 36 37 36 34 34 33 33 31 31 29 29 29 29 28 29 29 30 31
52 51 51 51 51 51 50 51 51 51 53 52 51 47 42 45 49 43 43 43 45 44 45 45 45 43 40 40 37 33 33 31 29 30 32 31 26 28 29 28 28 28 29 29 31
51 52 52 51 50 50 50 51 52 52 53 50 49 46 39 45 41 44 46 41 43 44 47 43 44 41 39 36 35 34 28 26 27 29 30 30 28 30 30 30 29 28 28 29 30
52 52 51 50 50 50 50 52 51 53 52 48 44 43 39 37 42 43 47 44 42 42 43 43 41 36 37 36 26 26 26 27 27 29 30 29 28 29 29 29 29 28 27 28 29
53 52 51 50 50 50 50 50 46 46 45 39 37 38 34 39 42 42 44 43 42 40 36 40 35 35 31 30 30 30 30 29 30 30 29 27 27 28 29 29 28 27 27 27 29
54 51 50 49 49 50 50 43 43 43 38 40 37 36 38 41 34 39 44 40 38 35 35 35 35 32 33 33 31 30 30 29 30 29 27 27 28 30 29 27 25 26 27 28 30
54 52 49 49 49 49 45 45 47 45 39 38 36 35 37 38 35 39 42 40 36 34 33 32 32 32 31 31 31 31 30 29 27 29 30 29 26 25 26 25 25 26 29 31 33
54 51 49 50 47 46 45 46 47 47 37 35 32 38 39 40 37 40 41 39 37 34 34 33 34 32 32 32 32 30 29 28 30 30 26 30 24 26 25 23 22 24 28 30 35
54 51 47 47 44 44 47 46 46 45 17 37 34 42 41 38 38 39 42 40 34 32 33 31 31 33 33 32 31 30 31 31 31 30 30 28 29 25 24 21 20 23 27 34 35
55 52 47 47 46 46 48 46 45 36 15 29 37 37 36 36 35 41 40 41 39 36 34 34 35 34 33 33 33 32 31 29 30 30 20 25 27 24 19 17 20 27 33 33 33
54 52 47 45 43 48 47 44 36 29 24 28 31 34 33 33 33 35 36 36 33 28 29 32 31 34 35 32 30 29 27 20 16 15 18 20 21 18 21 26 30 31 30 31 35
54 52 49 44 47 48 46 37 27 26 23 29 30 32 29 29 30 32 32 31 32 31 29 28 23 31 34 32 28 27 27 19 15 16 20 23 21 21 20 28 29 29 31 35 35
53 50 48 48 47 48 41 33 29 28 21 24 30 26 28 29 28 30 29 27 26 30 26 24 26 29 29 29 29 27 25 30 28 26 21 21 19 19 23 29 29 30 32 35 37
48 46 45 48 48 45 38 31 29 27 22 25 22 23 12 25 27 24 20 24 27 29 29 26 24 27 28 30 30 28 28 25 26 19 15 17 18 22 21 28 29 30 30 34 38
46 43 45 47 46 41 32 33 32 32 25 23 21 16 12 14 22 19 15 23 26 29 30 28 25 25 27 26 25 26 28 29 32 28 16 18 17 20 21 27 30 32 34 37 39
45 38 46 46 39 39 35 33 35 33 31 27 29 26 22 18 13 15 18 19 26 30 28 29 27 24 23 24 25 21 21 21 21 19 23 22 21 23 23 27 32 33 38 41 43
41 40 46 46 34 34 34 34 35 34 34 28 25 24 22 20 18 17 19 27 30 30 27 29 27 21 20 23 26 24 23 23 22 23 21 22 20 20 23 27 30 38 39 41 44
41 35 40 41 40 36 36 35 33 36 32 32 31 28 26 24 24 21 20 29 30 30 39 34 25 23 19 19 24 24 24 24 22 21 21 21 22 22 20 26 31 38 38 40 44
41 37 37 32 34 36 35 35 35 35 35 33 29 29 27 25 25 23 23 22 30 35 33 31 26 25 26 25 25 24 25 24 22 21 21 21 21 18 20 27 32 39 39 39 43
38 38 37 36 36 34 34 31 30 32 32 33 32 31 30 27 26 25 24 22 23 30 31 31 28 27 24 24 24 22 21 21 21 20 20 20 16 15 22 28 31 40 39 41 43
43 42 39 35 34 34 32 32 31 35 35 36 32 32 30 32 31 33 32 30 27 25 28 28 29 25 22 24 23 20 20 19 20 19 17 14 15 18 21 27 30 40 38 42 44
Lifted_Index
10 10 10 10 9 9 10 10 10 10 9 9 9 8 8 8 8 8 8 8 8 9 10 10 10 10 10 9 9 9 7 7 7 8 9 10 11 11 12 11 11 11 12 12 12
10 10 10 10 10 10 10 10 10 10 9 9 9 8 8 8 7 7 8 8 8 9 10 10 10 10 10 9 9 9 8 7 8 9 10 10 11 11 11 11 10 11 11 12 12
10 10 10 10 10 10 10 10 10 10 9 9 9 8 8 8 7 7 8 8 9 9 10 10 10 9 9 9 9 8 8 9 9 10 10 10 11 11 11 10 10 11 12 12 12
10 10 10 10 10 10 10 10 10 9 9 9 9 8 8 7 6 7 8 8 9 9 9 9 9 9 8 8 9 8 8 9 9 10 10 10 10 10 10 10 10 11 12 12 12
9 9 9 9 10 10 10 10 10 9 9 9 8 8 8 7 7 7 7 8 9 9 9 9 9 9 8 8 8 8 8 9 9 9 10 10 10 10 9 10 10 11 11 12 12
9 9 9 9 9 10 10 10 10 9 9 8 8 8 7 7 7 7 8 8 9 9 8 9 9 8 8 8 8 8 8 8 8 8 9 10 10 9 9 9 10 10 11 11 11
8 8 8 9 9 9 10 10 10 9 9 8 8 8 7 7 8 8 8 8 8 8 8 8 8 8 8 8 8 8 7 7 7 8 8 9 8 8 8 9 9 10 10 10 9
8 8 9 9 9 9 10 10 9 9 8 8 8 7 7 8 8 8 8 8 8 8 8 8 8 8 7 7 7 6 6 6 6 7 8 8 7 7 7 8 9 9 9 8 7
8 8 9 9 9 10 10 10 9 8 8 8 8 7 7 8 8 8 8 8 8 8 8 8 7 7 6 6 5 5 4 5 6 7 7 7 7 7 7 7 8 7 6 5 5
8 8 9 9 10 10 10 9 8 7 7 8 7 7 7 8 8 8 8 8 8 7 7 7 6 6 6 5 4 4 4 5 5 6 7 7 7 6 6 6 6 5 4 3 3
7 8 9 10 10 10 9 8 8 7 7 7 7 8 8 8 8 8 8 8 7 6 6 6 5 5 6 6 5 5 5 5 5 6 6 6 6 6 5 4 3 3 2 2 2
7 7 8 10 10 10 9 8 8 8 7 7 8 8 8 8 8 8 8 7 6 5 5 5 5 5 6 6 6 5 5 5 5 5 5 6 6 5 4 2 2 2 2 1 1
7 7 7 9 10 9 8 9 9 9 7 7 8 8 8 8 7 7 7 7 6 5 5 5 5 5 6 6 5 5 5 5 5 5 5 5 5 4 3 2 1 1 1 1 1
7 7 7 7 8 8 8 9 9 8 6 5 6 7 8 7 6 7 7 7 6 5 5 5 5 5 5 5 5 5 5 5 5 4 4 3 3 3 2 2 1 1 1 1 1
6 6 6 6 7 7 8 9 9 6 4 4 6 6 7 6 6 6 7 7 6 5 5 5 5 5 5 5 5 5 5 5 5 4 3 2 2 2 2 2 1 1 1 1 1
5 5 6 6 7 7 8 8 7 5 3 4 5 5 6 6 6 6 6 6 6 5 5 5 5 4 5 5 5 5 5 4 4 3 2 2 1 2 2 2 1 1 1 2 2
5 5 5 6 6 7 8 7 5 4 4 5 5 5 5 5 5 5 5 5 5 4 4 4 4 4 5 5 5 5 4 3 2 1 1 2 2 2 1 1 1 1 2 3 3
5 5 5 5 6 6 7 5 4 4 5 6 5 5 5 5 5 5 5 4 4 4 4 3 3 4 4 4 4 4 4 3 1 1 2 2 2 2 1 1 2 2 2 3 4
5 5 5 5 5 5 5 4 4 5 6 6 5 5 5 5 5 5 5 5 5 4 4 4 3 4 4 4 4 4 4 3 2 2 2 2 2 2 2 2 2 3 3 4 4
5 5 5 5 5 5 4 5 5 6 6 6 5 5 5 5 5 5 5 5 5 5 5 4 4 4 4 4 4 4 4 3 3 2 1 2 2 2 2 3 3 3 4 4 3
5 5 5 5 5 5 5 5 5 6 6 6 5 5 5 5 5 5 5 5 5 5 5 5 5 4 4 4 4 4 4 3 3 2 1 1 2 2 2 3 3 4 4 3 3
6 6 6 5 5 5 6 6 6 5 6 6 5 5 5 5 5 6 5 5 5 5 5 5 5 4 3 4 4 4 4 3 3 2 2 2 2 2 2 3 3 3 3 2 2
7 7 7 7 6 6 6 6 6 6 6 6 5 5 5 5 5 5 5 5 5 5 5 5 5 4 3 3 4 3 3 3 3 3 2 2 2 2 3 3 3 3 2 2 1
7 7 7 8 8 7 7 7 6 6 6 6 6 6 5 5 5 5 5 5 5 5 5 5 5 4 3 3 3 3 3 3 3 3 3 2 2 3 4 4 3 2 2 1 1
7 7 8 8 8 8 8 8 7 6 6 6 6 6 6 6 5 5 5 5 5 5 6 6 5 5 4 4 4 3 3 3 3 3 3 2 2 3 4 4 3 2 2 1 0
8 8 8 8 8 8 8 8 8 7 7 7 7 6 6 6 5 5 5 6 6 6 6 6 5 5 4 4 3 3 3 3 3 3 3 3 3 3 4 4 3 2 2 1 1
8 8 8 8 8 8 9 9 8 8 7 7 7 7 6 6 6 6 6 6 6 6 6 6 5 5 4 3 3 3 3 4 4 4 4 3 3 4 4 4 3 2 2 1 1